CAPE
23 25 24 37 54 65 56 48 5 0 1 13 0 0 0 0 0 0 0 0 0 0 0 0 0 0 0 95 2166 3519 2659 2568 2657 2296 2015 1582 1424 1141 894 773 1103 1151 867 675
27 20 41 25 24 37 31 45 48 49 64 53 17 0 0 0 0 0 0 0 0 0 0 0 0 0 0 682 2711 3380 2615 2775 2541 2358 1801 1430 1336 1102 941 1256 1255 1176 1100 941
26 20 9 21 29 73 36 44 24 39 110 55 41 12 4 0 0 0 0 0 0 0 0 0 0 0 0 1300 3441 2830 2873 2800 2356 1997 2000 1828 1512 1346 1210 1485 1280 1212 1135 1204
17 18 19 16 24 31 28 25 37 77 74 57 61 29 4 0 3 0 0 0 0 0 0 0 0 0 106 2324 3502 2661 3204 2775 2408 2277 1786 1703 1579 1478 1380 1599 1935 1835 1828 1624
0 24 24 42 30 15 19 24 45 114 89 55 47 39 18 2 11 0 0 0 0 0 0 0 0 0 1379 3014 3152 2874 3121 2549 2435 2225 1920 2044 1658 2256 1675 1438 1324 1495 1395 607
4 9 20 23 19 13 29 21 53 47 40 25 32 33 23 2 0 0 0 0 0 0 0 0 0 29 2310 3087 2906 2663 2485 2355 2504 2278 1950 2208 2187 1743 1493 1249 1234 1205 678 425
9 26 12 6 30 7 28 12 36 19 31 0 34 25 24 1 0 0 0 0 0 0 0 0 0 1049 1884 2874 2462 2753 2402 2263 2149 2263 2365 2171 1581 1457 1723 1800 1406 1014 445 128
10 9 16 2 21 26 15 8 19 19 28 33 20 15 12 0 1 0 0 0 0 0 0 0 0 1092 2718 2688 2286 2556 2738 2481 2474 2402 2067 1605 1862 1754 1507 1182 691 432 76 93
18 13 0 2 17 27 35 29 25 21 51 36 68 55 34 0 0 0 8 1 0 0 0 0 56 1098 2695 2187 2541 2577 2613 2453 2320 2150 1954 2048 1744 1224 997 520 229 69 0 5
0 0 0 0 15 18 20 30 13 7 8 13 41 31 18 2 0 2 41 12 1 0 0 0 246 2049 2515 2110 2302 2590 2417 2792 2388 2193 1900 1660 1258 1080 322 152 16 0 0 0
3 0 1 1 10 4 11 8 21 29 33 21 7 81 112 58 7 0 12 0 0 0 0 0 501 1900 1823 2554 2104 2459 2756 2678 2356 2064 1751 1398 1116 421 130 3 1 2 0 0
19 1 1 0 0 12 26 20 33 13 34 24 44 4 0 244 14 0 0 0 0 0 9 51 827 2127 913 2212 2075 2355 2342 2085 1978 1663 1146 737 335 75 2 1 1 0 0 0
0 0 0 3 12 4 15 21 20 32 27 18 32 11 0 146 94 0 0 0 0 0 29 410 2433 2038 1809 1729 1948 1824 1429 1267 874 696 390 206 40 2 3 2 0 0 0 0
12 0 1 1 1 1 0 17 3 24 43 18 45 0 0 74 18 92 24 16 9 0 169 1508 1755 1473 1246 1156 914 668 544 436 305 88 20 9 3 2 0 0 0 0 0 0
1 0 2 7 10 4 9 6 16 14 3 62 67 0 0 12 0 6 141 163 54 20 715 1481 863 718 737 683 350 87 177 266 106 5 0 2 1 0 0 0 0 0 0 0
1 0 13 7 3 5 8 12 9 9 9 17 50 14 0 12 0 0 101 321 53 1119 1087 385 394 318 255 196 27 4 7 29 15 0 0 0 0 0 0 0 0 0 0 0
1 1 1 3 16 2 0 3 8 16 30 76 6 30 23 0 0 7 90 444 1127 556 155 223 105 30 23 14 2 2 0 0 0 0 0 0 0 0 0 0 0 0 0 0
0 0 0 0 10 0 5 29 101 181 165 97 1 0 0 0 0 4 128 776 319 89 30 11 3 2 2 1 1 0 0 0 0 0 0 0 0 0 0 0 0 0 1 1
0 2 0 0 0 0 0 0 3 60 75 20 0 0 0 0 0 2 14 44 5 4 3 3 3 2 1 0 0 0 0 0 0 0 0 0 0 0 0 0 0 1 2 3
0 0 0 0 85 6 2 2 1 18 8 1 0 0 0 2 0 5 4 4 3 3 3 3 1 1 0 0 0 0 0 0 0 0 0 0 0 0 0 0 1 2 0 0
1 0 3 2 18 2 1 2 40 0 1 1 26 43 2 0 3 2 3 4 3 3 3 1 1 1 0 0 0 0 0 0 0 0 0 0 0 0 0 2 1 0 0 0
0 1 3 0 1 0 0 0 0 1 1 33 5 4 5 3 3 3 3 3 3 3 2 1 0 0 1 0 0 0 0 0 0 0 0 0 0 0 0 2 2 1 0 0
0 0 2 0 0 0 3 2 1 0 6 0 4 5 3 2 3 2 2 2 2 2 1 1 2 0 0 0 0 0 0 0 0 0 0 0 0 1 1 0 0 0 0 0
0 1 0 0 1 1 1 1 2 1 3 4 5 2 2 2 2 3 2 2 2 1 0 1 0 0 0 0 0 0 0 0 0 0 0 0 0 0 0 0 0 0 0 0
0 0 0 0 0 1 3 3 1 2 2 2 2 3 3 2 3 2 1 2 2 0 0 0 0 0 0 0 0 0 0 0 0 0 0 0 0 0 0 0 0 0 0 0
0 0 0 0 0 1 1 3 1 1 2 2 1 2 3 3 2 2 1 1 0 0 1 1 0 0 0 0 0 0 0 0 0 0 0 0 0 0 0 0 0 0 0 0
CIN
-5 -7 -3 -5 -16 -11 -9 -13 -17 0 -27 -11 0 0 0 0 0 0 0 0 0 0 0 0 0 0 0 -81 -2 -12 -59 -29 -16 -28 -12 -28 -42 -31 -45 -52 -36 -34 -65 -106
-8 -7 -6 -8 -13 -33 -9 -13 -10 -8 -12 -8 -7 0 0 -3 0 0 0 0 0 0 0 0 0 0 0 -88 -3 -10 -56 -27 -30 -31 -23 -34 -28 -38 -40 -32 -41 -57 -90 -122
-5 -4 -14 -7 -46 -30 -3 -23 -16 -8 -5 -12 -7 -9 -10 -5 0 0 0 0 0 0 0 0 0 0 0 -8 -6 -31 -41 -24 -46 -54 -25 -24 -30 -28 -34 -39 -71 -93 -89 -60
-3 -6 -6 -4 -3 -4 -4 -4 -22 -10 -10 -6 -6 -10 -9 0 -6 0 0 0 0 0 0 0 0 0 -72 -1 -1 -40 -19 -41 -20 -23 -52 -63 -56 -58 -48 -30 -27 -35 -20 -22
0 -3 -5 -2 -3 -3 -3 -6 -12 -4 -7 -13 -6 -15 -8 -8 -8 -1 0 0 0 0 0 0 0 0 -4 -4 -2 -23 -14 -92 -20 -24 -36 -27 -37 -49 -119 -102 -97 -45 -43 -140
-4 -3 -5 -4 -7 -6 -5 -4 -6 -7 -11 -10 -6 -14 -7 -15 0 0 0 0 0 0 0 0 0 -13 -3 -2 -1 -2 -14 -13 -23 -74 -54 -43 -79 -120 -107 -116 -109 -89 -133 -143
-6 -4 -5 -10 -5 -6 -4 -6 -1 -1 -2 0 -9 -11 -15 -7 0 0 0 0 0 0 0 0 0 -2 -1 -1 -4 -0 -15 -46 -25 -41 -84 -97 -140 -122 -80 -66 -68 -63 -157 -223
-2 -3 -5 -3 -2 -2 -4 -5 -3 -3 -7 -12 -15 -8 -15 0 -11 -3 -9 0 0 0 0 0 0 -3 -2 -1 -1 -3 -15 -32 -20 -82 -93 -126 -74 -63 -108 -74 -129 -160 -279 -229
-1 -1 -0 -9 -6 -4 -1 -5 -4 -9 -5 -5 -10 -25 -9 0 0 0 -10 -5 0 0 0 0 -20 -2 -2 -18 -1 -19 -23 -35 -74 -74 -69 -30 -65 -129 -194 -250 -281 -269 -0 -0
0 -0 -1 0 -6 -5 -2 -4 -12 -5 -7 -7 -7 -18 -10 -8 0 -14 -17 -6 -2 0 0 0 -4 -2 -13 -16 -17 -9 -30 -24 -60 -32 -62 -86 -115 -205 -351 -304 -367 0 -0 0
0 0 -0 -2 -1 -3 -3 -5 -1 -4 -4 -15 -9 -19 -63 -16 -16 0 -15 0 0 0 -1 0 -4 -5 -52 -11 -29 -1 -0 -19 -39 -62 -85 -79 -191 -304 -350 -44 -1 -0 -0 0
-1 0 -1 -2 -0 -6 -4 -3 -4 -2 -4 -15 -15 -21 -6 -36 -23 -2 0 0 0 -0 -7 -8 -3 -38 -35 -25 -17 -7 -21 -58 -69 -47 -168 -283 -357 -402 -16 -1 -1 0 0 0
0 0 0 -3 -3 -5 -3 -3 -1 -2 -5 -13 -2 -23 -0 -55 -17 0 0 -1 -0 0 -7 -4 -26 -58 -24 -86 -25 -28 -111 -147 -229 -288 -404 -434 -460 -0 -0 -1 -0 0 0 0
0 0 0 -0 -1 -0 0 -2 -7 -2 -1 -51 -5 0 0 -79 -84 -78 -6 -6 -5 0 -2 -2 -23 -38 -79 -103 -179 -273 -313 -317 -393 -555 -649 -286 -0 -1 -1 0 0 0 0 0
0 0 0 0 -0 -0 -0 -1 -1 -1 -3 -3 -6 0 0 -165 0 -156 -205 -49 -3 -6 -3 -48 -122 -113 -129 -175 -329 -477 -399 -371 -493 -620 -0 -0 -1 0 0 0 0 0 0 0
0 0 -0 -1 -2 -2 -1 -1 -2 -3 -41 -39 -3 -8 0 -138 0 -3 -170 -76 -24 -18 -58 -169 -234 -224 -273 -351 -513 -631 -627 -541 -544 0 0 0 0 0 0 0 0 0 0 0
0 0 0 -1 -4 -1 0 -1 -4 -17 -4 -2 -5 -9 -11 0 0 -209 -238 -74 -38 -109 -151 -246 -343 -415 -462 -460 0 0 0 0 0 0 0 0 0 0 0 0 0 0 -0 -0
0 0 0 -0 -1 -0 -6 -24 -3 -2 -2 -9 -33 -0 0 0 0 0 -39 -84 -147 -201 -320 -194 0 0 0 0 0 0 0 0 0 0 0 0 0 0 0 0 0 -1 -1 -1
0 0 0 -0 0 0 -1 0 -4 -6 -2 -37 0 0 0 0 0 0 -34 -287 -20 0 0 0 0 0 0 -0 0 0 0 0 0 0 0 0 0 0 0 0 -1 -1 -1 -1
-1 -0 0 0 -1 -0 0 0 -0 -6 -27 -0 0 -1 0 0 0 0 0 0 0 0 0 0 0 0 0 0 0 0 0 0 0 0 0 0 0 0 0 -0 -2 -1 -1 0
-0 -0 -0 -0 -1 -2 0 0 -12 0 0 -2 -12 -30 -1 0 0 0 0 0 0 0 0 0 0 0 0 0 0 0 0 0 0 0 0 0 0 -0 -1 -1 -1 -0 0 0
0 0 0 -0 -0 -0 0 0 0 0 0 -14 0 0 0 0 0 0 0 0 0 0 0 0 -0 -0 -1 0 0 0 0 0 0 0 0 0 0 0 -2 -1 -1 -1 -0 0
0 0 0 0 0 -0 0 0 0 0 -9 0 0 0 0 0 0 0 0 0 0 0 0 -0 -0 -0 0 0 0 0 0 0 0 0 0 0 -0 -1 -1 -0 0 0 0 0
0 0 0 0 0 0 0 0 0 0 0 0 0 0 0 0 0 0 0 0 0 0 -0 -0 0 0 0 0 0 0 0 0 0 0 0 0 0 0 0 0 0 0 0 0
0 0 0 0 0 0 0 0 0 0 0 0 0 0 0 0 0 0 0 0 0 0 0 0 0 0 0 0 0 0 0 0 0 0 0 0 0 0 0 0 0 0 0 0
0 0 0 0 0 0 0 0 0 0 0 0 0 0 0 0 0 0 0 0 -0 -0 -0 -0 -0 0 0 0 0 0 0 0 0 0 0 0 0 0 0 0 0 0 0 0
Wind_Speed
7 10 8 5 6 19 27 42 45 46 41 41 51 53 52 50 53 47 55 44 48 48 45 37 36 32 39 35 29 24 21 19 17 14 10 7 5 4 3 5 7 7 8 10
5 9 9 31 37 33 24 26 33 45 43 44 48 54 54 48 53 53 47 48 45 44 45 44 41 36 31 34 31 26 22 20 18 14 11 8 5 3 2 5 6 8 9 11
9 12 34 28 13 26 15 24 27 39 41 43 46 53 54 54 50 51 47 42 44 42 40 41 38 35 33 29 29 29 23 21 19 15 12 8 4 2 3 5 6 8 10 12
10 12 16 23 30 18 25 14 15 17 41 44 41 57 51 54 52 52 52 51 48 45 41 37 36 30 30 29 26 25 24 22 20 16 12 10 6 3 2 4 7 9 11 14
10 15 8 15 19 11 23 20 14 8 13 43 46 48 48 51 58 54 53 54 52 47 42 40 33 33 24 26 28 25 23 23 20 17 13 10 5 0 3 5 7 10 13 16
13 12 13 17 15 6 8 6 8 9 9 44 44 48 51 53 57 58 57 56 55 49 43 40 32 32 24 24 28 29 26 24 22 17 14 10 5 1 2 5 7 10 13 14
3 4 10 11 6 4 6 5 1 6 13 40 35 43 46 45 48 52 54 52 51 48 41 39 34 30 28 24 26 28 27 25 20 16 11 7 4 2 3 5 8 9 11 12
5 10 8 7 3 2 7 7 3 10 17 32 13 37 39 47 45 39 40 44 46 46 37 35 33 30 28 25 25 28 27 24 19 14 10 7 5 2 4 7 7 10 11 11
16 8 12 3 1 1 1 15 13 15 26 32 31 25 41 42 46 47 38 35 41 40 37 34 31 31 25 26 24 28 26 22 18 14 10 7 3 3 6 7 9 10 11 11
15 10 9 8 6 9 9 7 2 4 3 32 30 32 32 40 48 34 30 33 34 39 35 34 30 29 26 25 24 26 24 22 17 14 10 6 3 5 6 7 9 10 11 12
18 15 17 17 7 6 1 4 2 4 11 27 28 25 22 30 47 39 33 36 37 39 35 33 29 31 35 26 24 26 24 21 17 13 9 6 4 4 7 8 9 10 11 12
17 19 16 11 15 14 13 9 9 10 4 16 28 30 32 30 39 43 37 38 39 38 35 30 29 28 10 23 24 25 23 20 15 12 9 6 4 5 7 8 9 11 12 13
18 15 19 17 9 4 2 3 8 15 17 32 28 21 22 24 26 44 40 36 36 41 32 26 26 27 26 25 26 24 21 18 14 11 8 6 4 6 7 8 9 10 12 13
2 6 4 7 11 13 7 11 3 9 8 33 33 22 29 27 18 25 39 34 33 40 31 27 26 26 25 26 25 21 19 16 14 10 8 6 6 7 8 9 9 10 12 13
10 10 6 9 13 17 19 9 10 7 20 35 34 21 21 32 25 27 26 37 35 38 31 28 26 26 26 25 23 21 18 15 13 11 9 7 7 8 8 8 9 11 12 13
15 11 8 5 5 8 16 16 17 11 33 30 39 35 27 32 29 30 28 31 40 24 27 30 27 26 26 24 22 20 17 15 13 10 8 9 8 8 9 9 11 12 12 13
14 16 21 13 15 14 9 6 10 19 31 31 35 27 23 34 30 31 37 31 30 31 30 26 28 27 24 22 20 19 17 15 12 10 11 10 11 10 10 10 12 12 13 14
13 13 14 4 11 9 22 22 2 21 24 25 20 24 24 34 33 30 51 31 32 32 29 27 27 26 22 20 19 19 17 15 13 11 11 11 12 10 10 11 12 13 13 14
10 10 9 7 16 16 21 14 13 14 16 12 13 20 26 31 27 20 11 26 28 27 26 27 26 24 22 20 20 19 17 15 13 12 12 11 10 11 11 11 12 13 13 15
7 10 11 7 18 18 15 15 16 17 17 13 20 26 31 33 33 23 15 20 22 23 25 27 25 23 22 19 18 17 16 14 12 12 12 12 12 12 12 12 12 13 14 15
16 13 11 8 15 12 12 15 15 9 13 14 13 22 24 27 24 21 19 20 22 23 25 25 24 23 21 19 18 17 15 13 13 13 13 12 13 13 13 12 12 13 15 16
15 13 14 12 14 15 22 13 11 13 14 6 4 15 21 20 19 19 21 23 24 24 25 24 24 23 19 18 17 16 14 14 14 13 12 13 12 12 12 13 13 14 15 16
16 13 10 13 13 16 16 19 18 18 8 4 5 15 18 20 20 20 23 24 25 25 25 25 24 22 17 15 13 15 14 14 14 13 13 12 12 12 12 13 14 15 16 17
13 17 13 12 15 14 11 13 13 9 9 9 13 15 18 20 20 22 23 25 25 25 26 24 22 20 16 14 14 15 15 14 15 14 13 12 12 12 13 14 15 16 18 17
8 10 12 16 12 13 11 11 11 5 7 10 13 12 17 18 20 22 24 24 25 25 24 21 19 18 16 15 15 15 15 15 14 13 11 11 11 12 14 16 16 17 19 20
6 11 13 14 12 14 12 9 8 8 9 12 11 13 14 17 21 23 24 23 24 24 22 19 18 17 17 16 15 14 14 13 12 12 11 12 13 14 15 17 18 20 21 23
Wind_Direction
323 315 290 255 272 226 235 262 274 273 277 276 260 257 254 251 246 247 242 245 242 242 242 242 240 237 237 237 230 218 218 220 211 213 220 222 239 260 310 322 337 350 345 341
299 263 244 236 268 247 234 235 239 266 278 272 263 259 254 250 243 242 244 240 241 241 240 240 240 238 232 232 226 221 219 212 211 213 226 224 230 242 319 346 337 343 344 342
249 244 271 266 218 235 233 233 239 257 258 275 265 260 254 248 245 240 240 240 239 241 237 237 236 235 233 225 221 222 216 209 207 217 227 222 220 260 326 349 340 344 350 346
245 237 224 222 230 227 234 241 245 241 272 270 266 256 252 245 240 237 237 237 237 238 238 236 231 231 229 223 217 213 213 213 212 212 206 191 194 210 312 27 360 354 346 346
252 234 210 208 213 228 233 232 233 271 261 278 263 258 255 242 237 235 235 234 234 236 236 234 229 230 219 221 217 209 206 199 208 204 204 196 195 245 343 15 18 351 350 353
246 232 221 220 219 309 310 282 238 240 261 273 264 257 251 243 235 233 235 232 230 233 233 231 228 225 219 217 215 210 204 202 202 206 203 224 172 222 359 352 3 355 358 1
20 234 209 213 222 235 205 196 313 332 307 273 273 257 253 246 233 231 232 228 227 228 229 226 224 216 220 213 206 201 201 196 196 195 196 181 170 158 36 13 14 14 8 8
5 27 39 41 146 62 189 194 231 346 328 296 305 260 257 240 236 231 233 227 222 223 223 220 219 216 210 201 192 198 192 188 189 180 176 171 170 82 35 7 18 11 29 28
3 21 12 351 345 301 289 211 214 238 246 253 266 281 252 234 232 226 226 226 218 217 215 214 213 212 199 185 182 187 188 185 182 180 178 174 172 66 31 21 29 38 45 46
359 328 343 343 261 207 204 348 358 207 303 264 251 257 251 231 223 224 220 217 216 210 210 211 207 203 182 183 183 190 185 180 180 179 170 175 129 60 32 35 46 48 44 31
354 344 339 345 338 218 292 239 227 208 207 248 265 264 259 243 221 220 220 217 217 210 207 206 202 202 183 181 186 190 185 179 178 174 170 161 110 66 46 48 52 45 40 42
343 338 325 269 231 210 211 211 205 193 171 206 242 252 233 249 224 219 222 216 216 213 205 198 199 198 209 175 180 183 182 180 173 175 165 142 103 67 52 52 51 53 50 46
350 352 349 358 16 160 204 219 200 199 214 228 235 243 244 237 237 215 215 212 212 210 198 188 181 192 194 189 183 182 183 174 173 168 154 133 95 67 62 59 56 53 47 41
2 355 289 273 246 349 353 339 32 189 202 226 232 262 237 235 243 215 214 210 210 204 189 175 178 187 188 187 182 180 178 170 163 158 144 117 91 75 66 62 51 46 41 36
34 4 330 256 243 228 228 227 210 206 206 221 237 253 268 232 236 225 227 214 202 201 181 181 181 182 180 178 173 172 169 159 151 139 124 105 85 76 67 56 48 42 40 38
24 21 8 269 232 206 206 207 204 201 236 216 238 236 266 233 233 225 216 214 197 180 177 182 178 176 175 172 167 165 160 151 137 128 117 96 86 72 65 58 55 53 47 43
30 21 11 31 10 37 122 156 173 190 215 231 221 244 264 227 219 218 217 215 183 186 184 177 178 179 177 171 164 159 152 137 127 119 104 97 90 82 73 63 58 54 49 42
29 31 39 158 218 88 352 350 49 215 222 224 243 235 248 213 215 214 218 175 180 184 182 180 179 177 172 163 153 143 137 129 124 113 104 98 90 76 66 60 53 51 44 36
77 76 91 144 294 338 2 287 261 226 216 255 277 260 207 200 206 211 148 162 173 176 177 177 176 170 161 154 147 139 132 126 115 109 103 94 83 73 65 59 52 45 39 33
243 118 103 114 15 353 313 269 242 211 221 322 296 201 197 200 197 207 169 164 163 163 166 168 168 163 158 154 145 138 129 121 114 107 98 89 79 70 66 57 48 43 39 32
58 95 110 147 131 171 289 277 248 215 226 279 206 195 194 191 189 183 171 159 158 156 157 159 160 159 157 149 140 131 124 116 108 100 92 83 76 67 60 53 44 39 34 31
58 78 109 151 136 174 313 268 279 237 272 220 189 195 179 173 171 167 163 154 152 151 154 157 154 154 155 145 135 125 118 110 102 96 88 82 72 61 52 48 41 35 30 28
62 84 109 192 176 255 266 276 280 259 274 260 193 178 173 169 167 164 161 156 153 151 149 150 148 144 143 138 132 123 114 108 102 93 87 77 66 55 45 39 35 29 25 27
63 5 102 177 147 259 251 278 292 317 357 186 181 175 172 167 166 163 160 158 154 153 150 150 147 140 136 128 118 111 110 106 99 92 83 72 60 48 34 24 14 11 8 21
123 176 130 138 203 243 270 287 290 274 186 177 177 166 167 165 165 164 162 160 155 151 152 152 144 134 126 120 115 109 105 102 96 89 80 63 45 36 31 21 20 24 12 14
166 153 129 76 228 192 220 257 252 211 197 186 169 164 168 166 164 164 162 160 154 149 146 140 135 128 122 117 112 107 104 100 96 85 69 63 57 52 48 45 39 30 32 29